Total_Precipitation_Accumulation
2.62 2.60 2.51 2.57 2.55 2.53 2.41 2.25 2.10 2.03 1.87 1.73 1.62 1.67 1.68 1.60 1.57 1.60 1.58 1.63 1.72 1.74 1.77 1.87 1.96 2.01 2.11 2.15 2.22 2.25 2.33 2.37 2.31 2.06 1.92 1.90 1.88 1.85 1.87 1.73 1.63 1.55 1.43
2.34 2.42 2.51 2.53 2.44 2.32 2.13 2.02 1.90 1.79 1.63 1.55 1.51 1.57 1.54 1.42 1.41 1.38 1.32 1.36 1.46 1.56 1.63 1.70 1.77 1.78 1.85 1.83 1.92 1.99 2.02 2.08 2.10 2.12 2.12 2.07 2.01 1.95 1.86 1.70 1.46 1.28 1.24
2.15 2.13 2.30 2.36 2.23 2.07 1.94 1.87 1.77 1.62 1.55 1.54 1.49 1.46 1.44 1.34 1.28 1.24 1.24 1.23 1.21 1.29 1.40 1.45 1.51 1.52 1.50 1.46 1.52 1.54 1.64 1.75 1.94 2.00 1.98 2.04 2.02 2.02 2.07 1.78 1.53 1.48 1.15
2.11 2.27 2.31 2.23 2.09 1.99 1.80 1.62 1.52 1.43 1.45 1.51 1.45 1.37 1.28 1.20 1.14 1.17 1.21 1.21 1.16 1.17 1.18 1.22 1.24 1.18 1.15 1.18 1.20 1.25 1.40 1.66 1.83 1.88 1.78 1.80 1.87 1.86 2.02 1.90 1.74 1.61 1.36
2.06 2.07 2.03 1.96 1.88 1.85 1.78 1.63 1.47 1.34 1.29 1.37 1.32 1.27 1.19 1.08 1.02 1.05 1.11 1.11 1.10 1.06 1.06 1.06 1.02 0.99 1.02 1.00 0.95 1.06 1.27 1.52 1.64 1.71 1.70 1.65 1.65 1.71 1.77 1.68 1.67 1.65 1.53
1.77 1.78 1.72 1.70 1.74 1.69 1.66 1.55 1.45 1.35 1.28 1.30 1.27 1.18 1.04 0.88 0.90 0.91 0.88 0.92 1.03 1.09 1.05 0.96 0.91 0.87 0.86 0.87 0.88 0.96 1.09 1.21 1.33 1.46 1.51 1.52 1.52 1.56 1.67 1.67 1.66 1.69 1.65
1.62 1.57 1.58 1.58 1.55 1.52 1.38 1.32 1.36 1.39 1.32 1.25 1.17 1.06 0.95 0.88 0.82 0.79 0.82 0.89 0.98 1.06 1.08 1.08 0.94 0.79 0.87 0.90 0.92 0.97 1.01 1.05 1.14 1.31 1.40 1.38 1.46 1.58 1.76 1.73 1.73 1.70 1.62
1.56 1.49 1.44 1.44 1.38 1.35 1.32 1.31 1.31 1.31 1.28 1.23 1.13 1.02 0.93 0.84 0.81 0.79 0.82 0.83 0.94 0.99 1.00 1.02 1.03 0.98 0.93 0.98 0.95 0.97 0.99 1.05 1.11 1.19 1.34 1.36 1.33 1.44 1.65 1.67 1.67 1.64 1.55
1.34 1.31 1.24 1.25 1.30 1.30 1.27 1.34 1.32 1.23 1.18 1.12 1.05 1.02 0.97 0.85 0.78 0.75 0.79 0.87 0.94 0.91 0.84 0.83 0.83 0.84 0.85 0.94 1.01 1.07 1.07 1.06 0.96 1.02 1.08 1.17 1.28 1.37 1.45 1.51 1.63 1.77 1.69
1.21 1.21 1.11 1.10 1.15 1.23 1.25 1.28 1.20 1.13 1.09 0.97 0.93 0.98 0.97 0.91 0.79 0.69 0.73 0.76 0.82 0.81 0.78 0.76 0.75 0.71 0.69 0.68 0.79 0.98 1.09 1.05 0.99 1.01 1.14 1.29 1.38 1.43 1.42 1.48 1.60 1.72 1.70
1.04 1.10 1.09 1.06 1.07 1.08 1.10 1.16 1.12 1.05 1.03 1.01 0.99 1.01 1.01 0.95 0.81 0.70 0.68 0.67 0.69 0.73 0.76 0.76 0.74 0.65 0.56 0.57 0.69 0.85 0.92 0.91 1.00 1.23 1.44 1.51 1.51 1.46 1.37 1.36 1.49 1.61 1.65
1.01 1.12 1.12 1.08 0.97 0.95 1.09 1.14 1.08 1.03 0.98 1.02 1.03 1.03 1.03 0.99 0.83 0.71 0.65 0.63 0.65 0.68 0.72 0.71 0.67 0.62 0.54 0.57 0.64 0.76 0.80 0.91 1.14 1.39 1.55 1.52 1.34 1.20 1.19 1.19 1.26 1.40 1.51
1.06 1.11 1.12 1.04 1.01 1.00 1.06 1.06 1.00 0.97 0.89 0.89 0.91 0.94 0.94 0.87 0.79 0.71 0.66 0.61 0.61 0.64 0.65 0.64 0.61 0.63 0.64 0.73 0.79 0.80 0.88 1.07 1.27 1.38 1.39 1.29 1.18 1.13 1.15 1.20 1.18 1.31 1.37
1.09 1.06 1.05 1.06 1.04 0.98 0.94 0.91 0.88 0.87 0.81 0.78 0.80 0.82 0.79 0.76 0.69 0.60 0.57 0.56 0.56 0.60 0.63 0.68 0.75 0.81 0.83 0.87 0.92 1.01 1.07 1.14 1.15 1.23 1.22 1.16 1.09 1.11 1.15 1.12 1.17 1.26 1.38
1.01 0.93 0.91 0.94 0.92 0.88 0.78 0.73 0.72 0.67 0.59 0.58 0.59 0.60 0.59 0.59 0.58 0.53 0.50 0.52 0.50 0.54 0.61 0.75 0.93 1.00 1.02 1.00 0.99 1.02 1.06 1.07 1.09 1.07 1.05 1.04 1.07 1.08 1.07 1.04 1.09 1.13 1.27
0.89 0.83 0.79 0.81 0.80 0.74 0.70 0.66 0.60 0.49 0.46 0.43 0.41 0.43 0.43 0.47 0.46 0.40 0.42 0.45 0.46 0.55 0.64 0.86 1.01 1.05 1.07 0.97 0.92 0.90 0.90 0.90 0.88 0.89 0.92 0.97 1.01 1.00 1.00 1.00 1.02 1.09 1.18
0.81 0.80 0.70 0.67 0.70 0.69 0.65 0.67 0.70 0.56 0.46 0.42 0.41 0.43 0.44 0.44 0.42 0.41 0.40 0.45 0.49 0.54 0.62 0.77 0.88 0.96 0.97 0.88 0.83 0.85 0.85 0.83 0.83 0.84 0.89 0.93 0.94 0.93 0.96 0.99 1.00 1.05 1.10
0.68 0.64 0.61 0.61 0.61 0.58 0.58 0.58 0.61 0.69 0.69 0.62 0.50 0.46 0.46 0.48 0.47 0.44 0.43 0.50 0.57 0.57 0.65 0.71 0.77 0.84 0.88 0.85 0.82 0.84 0.84 0.83 0.83 0.85 0.86 0.91 0.96 0.95 0.92 0.92 0.94 0.96 1.01
0.54 0.51 0.50 0.48 0.48 0.50 0.52 0.51 0.53 0.58 0.64 0.66 0.64 0.56 0.52 0.55 0.55 0.53 0.51 0.51 0.58 0.63 0.68 0.70 0.70 0.73 0.76 0.78 0.81 0.82 0.81 0.80 0.80 0.80 0.81 0.87 0.91 0.91 0.91 0.86 0.85 0.86 0.93
0.51 0.45 0.41 0.39 0.39 0.41 0.43 0.47 0.52 0.52 0.53 0.59 0.61 0.56 0.53 0.60 0.63 0.61 0.55 0.53 0.59 0.63 0.64 0.69 0.70 0.69 0.70 0.67 0.68 0.71 0.75 0.73 0.70 0.72 0.78 0.86 0.90 0.91 0.86 0.80 0.81 0.88 0.92
0.40 0.38 0.35 0.33 0.36 0.39 0.39 0.43 0.48 0.47 0.50 0.54 0.52 0.49 0.55 0.60 0.65 0.61 0.58 0.57 0.63 0.68 0.72 0.70 0.68 0.68 0.64 0.59 0.61 0.64 0.66 0.65 0.65 0.67 0.72 0.80 0.81 0.79 0.76 0.71 0.69 0.71 0.74
0.35 0.35 0.30 0.28 0.31 0.34 0.37 0.39 0.40 0.43 0.45 0.45 0.46 0.45 0.52 0.55 0.59 0.61 0.61 0.62 0.66 0.69 0.73 0.72 0.68 0.65 0.62 0.59 0.59 0.59 0.60 0.62 0.67 0.69 0.70 0.70 0.69 0.67 0.66 0.63 0.59 0.59 0.65
0.30 0.31 0.30 0.29 0.29 0.32 0.35 0.39 0.38 0.36 0.38 0.41 0.42 0.42 0.43 0.49 0.54 0.60 0.62 0.63 0.68 0.70 0.70 0.68 0.64 0.60 0.58 0.55 0.53 0.54 0.56 0.57 0.57 0.58 0.61 0.62 0.61 0.61 0.60 0.59 0.58 0.60 0.64
0.29 0.31 0.30 0.27 0.28 0.32 0.34 0.34 0.31 0.29 0.35 0.40 0.44 0.45 0.45 0.48 0.51 0.58 0.64 0.67 0.68 0.69 0.65 0.61 0.55 0.51 0.53 0.52 0.49 0.46 0.47 0.47 0.45 0.44 0.48 0.51 0.52 0.54 0.55 0.56 0.57 0.58 0.61
0.26 0.27 0.25 0.25 0.27 0.33 0.33 0.29 0.28 0.29 0.31 0.38 0.42 0.46 0.46 0.46 0.51 0.58 0.64 0.69 0.70 0.67 0.59 0.56 0.50 0.46 0.46 0.46 0.44 0.40 0.42 0.43 0.41 0.40 0.45 0.49 0.47 0.48 0.52 0.56 0.59 0.56 0.56
0.24 0.26 0.25 0.27 0.29 0.27 0.28 0.28 0.29 0.30 0.31 0.34 0.37 0.42 0.44 0.49 0.53 0.55 0.57 0.60 0.63 0.62 0.55 0.49 0.43 0.41 0.42 0.42 0.40 0.40 0.39 0.37 0.37 0.41 0.44 0.47 0.47 0.47 0.48 0.52 0.54 0.55 0.55